Vorticity
10 10 14 16 14 14 13 13 14 10 10 11 9 8 8 8 7 8 9 9 9 13
11 14 14 13 10 11 10 8 9 9 9 10 9 6 6 7 8 9 11 10 8 10
13 13 11 9 10 9 6 5 7 13 12 7 6 9 12 17 23 25 28 32 29 28
14 9 10 8 7 5 6 12 10 6 8 13 22 30 37 45 47 42 39 39 41 39
8 9 8 4 6 11 11 6 7 15 30 37 42 46 35 26 19 19 20 20 21 24
9 5 3 7 11 7 6 14 25 38 39 44 27 15 13 12 6 -1 -3 -2 -4 -1
3 4 9 12 6 8 21 30 37 44 31 14 11 3 3 11 19 20 20 21 17 17
4 12 9 6 14 24 33 38 43 20 13 6 4 13 21 13 18 23 23 18 17 21
13 5 9 19 24 32 39 42 13 10 4 11 9 18 8 9 11 33 35 20 26 23
6 8 18 27 31 35 43 13 7 8 8 12 16 17 4 9 17 7 31 28 27 30
9 21 26 32 34 40 15 8 13 5 10 9 11 10 10 11 14 18 5 24 28 19
19 25 29 35 35 21 9 14 4 8 10 1 10 8 9 3 11 22 30 5 14 30
20 28 32 33 28 10 14 7 8 11 8 7 7 4 10 6 6 2 15 27 16 3
25 28 33 25 14 12 11 10 7 8 11 6 8 13 8 7 5 5 9 8 18 30
Height
5640 5631 5621 5612 5604 5597 5590 5583 5575 5566 5558 5549 5541 5533 5527 5524 5519 5515 5513 5511 5510 5510
5621 5611 5602 5593 5584 5576 5567 5558 5550 5540 5532 5523 5514 5505 5496 5491 5485 5479 5477 5474 5472 5473
5601 5591 5582 5573 5564 5554 5544 5533 5524 5514 5503 5493 5483 5473 5464 5457 5448 5442 5437 5434 5433 5433
5582 5572 5561 5552 5541 5531 5521 5508 5497 5485 5475 5462 5450 5439 5430 5423 5416 5410 5407 5402 5399 5400
5563 5553 5542 5530 5517 5506 5495 5482 5468 5455 5443 5432 5421 5412 5406 5403 5398 5393 5389 5384 5380 5380
5542 5531 5520 5508 5496 5483 5469 5456 5442 5429 5418 5410 5404 5399 5394 5389 5385 5380 5376 5370 5366 5364
5524 5514 5501 5488 5474 5460 5444 5432 5420 5409 5403 5398 5393 5388 5384 5378 5371 5364 5358 5352 5348 5345
5508 5496 5481 5467 5452 5437 5423 5412 5404 5399 5393 5388 5383 5378 5371 5364 5356 5348 5340 5333 5327 5324
5487 5473 5458 5443 5429 5416 5407 5399 5395 5390 5384 5379 5373 5366 5359 5351 5342 5332 5322 5315 5309 5306
5468 5454 5439 5425 5412 5401 5396 5392 5387 5382 5376 5370 5364 5355 5348 5340 5330 5319 5308 5299 5293 5289
5448 5434 5419 5408 5398 5392 5388 5384 5379 5375 5369 5362 5355 5346 5338 5330 5320 5310 5300 5289 5281 5275
5428 5416 5405 5395 5388 5385 5382 5378 5373 5368 5362 5354 5347 5338 5330 5322 5312 5302 5292 5282 5272 5263
5411 5400 5393 5385 5381 5379 5375 5372 5366 5363 5356 5347 5339 5331 5323 5314 5305 5297 5287 5275 5263 5253
5397 5389 5382 5378 5375 5372 5370 5365 5360 5357 5348 5340 5332 5325 5317 5309 5299 5290 5280 5269 5257 5247